Theta_e
313 313 313 312 315 318 319 322 330 333 332 337 338 334 334 344 345 342 341 340 336 334 333 331 329 328 326 324 324 322 320 317 315 309 309 312 310 311 314 309 311 311 312
309 311 312 313 314 314 313 316 321 323 329 333 335 338 340 339 340 342 341 341 338 334 334 332 330 329 324 324 324 322 319 316 310 308 307 306 308 310 313 306 308 310 308
308 311 310 309 310 311 314 316 316 319 323 326 331 331 332 333 335 339 340 342 340 337 334 332 331 329 326 325 323 323 321 317 315 312 305 309 305 307 310 307 308 307 306
310 310 309 310 309 311 314 315 315 317 320 323 323 326 326 328 331 335 337 338 339 340 336 333 332 329 325 327 326 324 320 318 317 313 310 308 307 306 307 306 305 305 305
310 310 310 311 311 312 313 314 314 316 318 320 321 321 321 326 329 329 333 333 333 337 338 335 333 330 330 327 328 325 322 319 315 313 309 308 305 302 303 306 305 306 307
311 310 312 313 312 312 312 312 313 314 316 318 319 319 319 324 317 316 319 328 330 329 330 336 333 330 328 324 324 324 322 320 315 312 309 307 307 306 306 305 305 303 302
310 312 313 313 312 312 312 312 312 311 313 316 317 317 318 320 314 312 314 322 321 323 325 327 335 333 328 329 322 322 320 319 317 315 309 309 308 310 307 306 305 304 302
312 313 314 313 312 312 311 311 310 311 311 312 314 317 318 319 312 310 311 317 318 320 323 327 330 334 331 328 327 324 323 321 318 316 314 314 314 312 310 309 307 305 305
312 313 314 314 313 313 312 311 311 310 311 311 314 316 316 317 310 308 309 317 317 319 323 325 328 332 325 314 326 323 322 321 317 313 313 312 309 308 310 308 304 303 302
312 313 315 314 313 313 312 312 312 312 311 313 312 313 314 315 309 306 308 315 315 316 320 325 319 324 318 309 323 324 320 318 316 313 312 308 307 308 307 309 306 303 304
311 312 312 313 313 313 313 313 313 312 312 311 311 313 314 313 314 307 305 313 314 314 316 320 325 315 309 307 314 326 321 319 314 312 309 309 309 308 307 308 308 307 304
310 310 310 311 312 314 312 312 312 312 311 310 310 311 313 314 310 308 304 302 306 311 311 317 321 310 305 304 310 317 307 310 313 311 307 306 306 306 307 307 308 307 308
310 310 310 312 312 313 312 312 312 312 310 309 309 309 310 312 312 306 303 300 303 309 311 311 304 303 302 304 306 309 304 311 310 308 305 305 307 309 308 308 309 308 307
308 308 308 311 309 311 311 310 309 309 309 309 309 309 309 310 311 311 307 307 307 308 308 309 309 306 305 312 310 308 312 309 309 307 306 307 308 307 306 308 305 305 303
308 307 308 309 307 307 306 306 306 306 306 306 307 309 307 307 311 305 299 303 303 301 299 301 306 309 308 306 306 308 308 307 307 306 305 305 305 305 305 306 306 304 303
306 307 308 306 306 305 304 304 301 299 298 297 297 297 303 299 297 296 295 293 292 293 295 302 304 306 308 304 304 305 305 306 307 307 306 305 304 304 303 304 306 305 303
305 305 306 305 306 304 303 302 299 300 298 297 296 296 296 295 293 293 293 292 291 291 294 302 305 304 305 305 305 305 305 306 308 306 305 304 304 304 302 303 302 302 303
305 302 304 303 306 305 304 302 300 298 297 298 298 296 296 294 294 294 293 291 294 295 299 304 305 304 304 304 305 305 305 305 304 304 305 305 304 302 302 302 302 301 300
304 305 304 304 305 304 304 303 301 299 298 298 299 298 297 296 294 293 292 293 295 299 301 305 305 305 305 304 304 304 302 302 303 303 304 304 304 303 302 302 301 295 296
303 301 299 302 303 303 303 302 301 300 299 298 298 298 299 297 297 299 300 299 298 301 302 303 303 305 305 304 304 302 301 300 302 303 303 303 304 303 302 301 301 300 300
300 301 293 300 302 302 302 301 301 299 298 298 298 298 291 295 299 300 300 300 301 303 302 302 302 303 303 303 302 302 302 301 303 303 302 302 303 301 301 301 300 302 303
300 299 299 301 301 301 300 301 301 299 298 298 298 299 292 299 300 300 299 299 300 300 301 302 302 302 303 302 302 302 302 302 303 302 302 302 302 301 301 302 303 303 302
300 300 299 301 301 298 301 301 300 300 299 299 298 298 299 299 300 300 299 300 300 301 301 302 302 302 303 304 305 304 303 302 303 303 302 301 300 300 302 303 303 302 301
298 297 300 301 300 300 301 300 301 297 299 299 298 298 299 300 300 300 301 300 301 301 302 302 302 302 303 304 305 305 305 304 305 304 302 301 301 301 304 303 303 302 301
296 296 297 297 297 297 298 298 300 298 298 298 298 298 299 300 300 301 300 301 301 301 301 301 302 302 302 303 303 304 294 294 303 300 305 304 304 304 304 303 303 302 301
292 293 294 294 294 294 295 295 294 294 294 294 294 294 295 296 296 299 302 302 300 301 301 301 302 303 303 303 301 292 291 293 299 293 305 306 304 304 304 302 302 302 301
Wind_Speed
7 7 6 4 4 6 5 5 6 6 7 7 8 10 13 12 14 14 16 16 16 16 16 15 16 13 12 12 11 11 11 8 10 3 4 8 14 14 12 9 10 10 10
5 4 5 6 9 9 6 7 6 7 6 6 6 6 9 10 13 15 17 17 19 19 20 18 19 13 17 15 12 15 13 11 6 9 4 6 9 16 15 13 10 9 8
7 7 7 7 7 8 10 12 7 7 7 6 4 4 7 8 11 12 15 18 20 21 21 21 23 19 22 19 17 16 13 10 9 7 4 6 4 12 11 9 11 9 7
7 7 8 11 9 8 9 9 9 12 9 8 7 6 6 7 9 11 12 15 19 19 20 21 23 22 24 22 18 20 13 14 15 9 9 11 12 12 11 12 8 6 8
6 6 8 8 7 8 8 9 11 13 14 9 8 7 7 6 6 10 12 13 14 18 21 22 23 26 33 27 17 18 17 16 12 12 10 11 13 13 18 12 12 11 9
7 7 8 8 7 8 9 7 8 11 13 15 12 8 9 6 10 13 13 12 11 14 17 20 21 28 30 31 32 31 25 21 19 14 13 17 18 16 16 15 11 10 7
7 8 9 9 10 10 8 9 12 12 12 12 13 11 9 9 12 14 15 9 12 13 16 16 19 17 26 23 29 31 28 31 30 23 21 19 18 21 18 17 16 13 8
11 10 11 12 12 11 8 11 11 11 13 14 15 13 12 9 15 17 16 11 11 14 15 17 16 20 20 24 23 24 25 24 23 19 21 19 18 20 23 22 20 15 5
12 13 13 13 14 13 13 13 12 11 12 14 14 15 13 13 14 16 14 11 11 13 15 17 18 18 23 27 23 23 26 22 22 29 22 20 18 26 23 14 13 13 10
15 16 14 15 15 15 15 14 13 11 13 12 16 15 17 18 14 17 13 7 10 10 14 16 19 21 21 21 21 17 18 20 18 17 13 16 20 22 29 21 17 15 10
14 15 15 15 15 14 13 13 13 14 14 14 16 15 15 14 15 17 14 7 7 9 11 12 12 17 22 25 33 24 21 18 22 18 13 13 16 18 15 13 16 15 13
14 16 14 14 13 12 14 13 14 14 14 14 15 14 11 12 15 13 13 12 9 8 11 10 12 18 17 23 27 29 15 19 14 18 17 15 16 15 14 13 15 11 10
15 15 15 14 12 12 12 13 12 12 11 13 12 12 12 10 9 12 13 12 11 7 10 14 19 25 20 21 29 25 22 14 11 11 15 15 15 15 15 14 10 10 6
14 13 13 12 12 11 9 10 10 12 12 13 12 13 12 11 11 7 4 4 7 8 13 13 13 18 15 16 12 15 14 13 15 11 10 12 13 13 14 14 13 8 7
12 11 10 10 10 10 10 9 10 12 13 15 13 12 12 12 11 6 3 7 7 10 13 10 8 8 4 5 8 11 10 11 13 15 14 13 12 15 13 12 12 10 8
11 10 8 8 8 10 10 11 12 16 21 20 19 12 11 15 19 15 12 13 14 16 7 9 8 7 8 11 12 13 15 18 15 15 15 17 16 15 15 14 12 12 11
10 11 10 9 8 10 10 11 13 12 15 16 18 20 20 18 18 16 18 18 17 12 8 9 9 8 8 10 12 13 14 14 18 15 16 17 17 16 19 15 13 12 10
10 11 10 10 9 9 9 10 10 13 14 14 13 15 17 18 20 21 20 13 9 8 8 9 9 9 8 10 11 11 10 11 12 14 15 16 18 19 18 16 14 12 10
9 8 10 9 9 9 9 9 10 13 13 13 13 13 14 17 22 19 16 6 8 9 7 8 7 8 8 9 9 10 14 11 13 14 14 16 17 17 17 15 14 10 10
7 12 9 8 9 10 9 10 11 13 12 12 12 13 14 15 14 12 12 8 7 7 6 5 5 6 7 9 9 9 10 11 11 13 14 16 14 15 16 17 15 13 12
4 6 9 8 8 9 8 9 10 11 13 11 12 12 18 12 13 11 11 10 9 6 3 2 3 4 5 8 9 10 11 11 13 12 13 13 16 17 16 15 12 14 12
4 4 6 7 8 9 8 8 9 10 13 13 13 12 17 10 12 10 13 10 9 7 5 1 2 4 7 9 11 12 13 14 13 14 15 16 17 16 16 15 14 11 10
5 6 7 9 8 9 8 9 10 11 11 13 14 14 12 12 11 10 9 11 9 8 7 5 3 2 4 6 9 11 13 12 13 14 16 16 16 17 14 12 11 11 10
6 7 9 8 9 10 8 9 10 13 12 10 12 13 14 13 13 14 9 9 8 7 7 6 5 6 6 5 6 8 9 11 11 14 19 17 17 13 12 13 11 11 9
7 7 8 9 9 10 11 11 11 13 12 12 12 12 13 15 14 10 11 9 6 8 8 7 6 9 11 13 12 13 12 17 16 16 12 17 15 13 13 10 11 10 11
8 9 8 8 9 9 10 10 11 11 12 12 12 12 13 14 14 14 11 13 7 9 7 6 9 14 13 12 15 14 15 17 16 10 5 6 8 10 8 8 11 9 10
Wind_Direction
3 344 343 330 304 310 304 288 281 290 299 304 275 264 262 252 231 225 228 226 216 216 219 214 214 231 235 212 210 205 209 199 211 188 127 166 168 170 182 174 182 185 190
335 345 332 327 329 320 280 274 275 279 283 288 305 318 301 280 259 238 236 233 227 222 222 223 220 206 224 223 213 211 199 196 163 169 150 152 175 180 175 171 182 190 186
343 334 319 311 304 294 303 306 299 287 278 274 264 262 277 300 305 300 283 248 234 226 223 218 225 219 219 216 210 211 203 185 195 169 160 157 142 170 165 179 184 185 196
338 327 316 314 303 293 291 286 295 301 282 273 264 260 274 289 291 292 294 289 261 241 226 220 222 217 218 219 219 216 198 186 196 181 174 170 164 176 173 169 180 194 195
322 311 297 293 296 302 299 295 301 299 289 265 266 264 254 260 283 291 294 292 296 279 238 223 220 218 221 218 212 209 200 194 187 184 173 166 169 170 182 178 183 178 197
297 290 296 288 286 289 293 294 309 301 299 293 270 257 272 267 269 275 282 287 290 287 291 246 227 222 222 215 216 210 197 194 189 179 176 183 187 182 178 178 168 171 189
282 293 302 293 294 291 281 298 301 299 298 289 279 276 267 267 266 269 270 274 287 284 279 279 257 227 220 217 216 214 210 209 193 178 182 187 179 184 173 172 174 180 179
308 303 307 307 295 288 278 284 285 288 294 296 286 269 262 257 254 265 266 278 277 279 276 272 269 253 221 216 212 213 212 209 199 192 190 186 182 180 180 177 171 169 141
316 313 309 307 303 297 296 290 281 283 285 290 287 279 266 263 253 258 265 275 277 281 285 279 266 254 240 207 211 214 211 208 207 196 181 183 176 174 170 154 164 163 172
329 320 314 309 304 296 293 293 286 280 275 282 284 278 270 271 264 261 255 262 278 287 289 281 268 253 241 202 211 211 217 202 185 187 174 160 159 172 168 169 162 167 161
319 317 318 312 307 300 297 298 297 292 287 284 282 279 272 266 266 260 253 255 267 288 291 288 277 259 229 204 205 211 210 206 184 180 163 156 159 167 171 164 165 164 168
317 318 314 312 310 307 305 302 300 294 289 286 285 284 276 269 254 256 251 236 261 273 290 289 291 283 227 208 211 211 186 180 200 175 161 162 162 167 166 151 159 163 178
318 318 326 322 317 315 310 309 308 303 298 292 288 285 284 280 270 248 249 257 258 273 294 281 277 280 260 216 204 195 158 162 189 181 168 164 163 156 144 132 127 122 132
320 319 315 321 322 317 321 321 317 314 310 307 302 292 288 290 283 268 251 264 286 291 298 294 281 274 260 231 196 189 168 168 160 172 163 144 138 139 145 152 152 148 145
321 317 316 332 325 324 331 319 319 317 310 312 310 306 306 304 292 276 296 304 295 288 297 289 266 268 213 145 154 154 159 155 155 151 149 143 139 143 142 152 150 160 155
328 329 326 323 323 335 327 328 323 317 316 308 308 298 309 294 298 305 305 294 284 282 277 269 247 230 207 174 168 168 159 163 160 163 168 148 157 156 150 153 151 151 162
337 334 326 324 318 334 332 331 331 328 312 314 319 321 317 303 300 296 293 289 279 273 238 245 231 209 195 188 177 171 175 177 163 167 164 152 153 158 151 155 155 140 154
343 329 339 331 320 326 327 328 329 330 328 327 322 312 310 308 301 295 290 294 282 229 240 236 216 197 182 185 182 169 162 168 162 161 159 158 153 154 157 156 153 156 163
338 340 342 328 322 326 324 322 322 335 330 322 324 324 320 317 310 290 274 250 267 265 245 233 205 192 182 184 179 171 152 172 163 160 160 158 154 154 152 150 147 159 170
339 324 328 332 334 336 330 327 327 333 327 329 327 328 330 333 329 328 321 293 277 276 244 223 190 182 175 172 169 155 151 154 165 162 161 153 153 149 144 145 159 176 188
306 323 319 326 333 335 334 332 332 342 339 330 330 326 322 329 329 335 337 332 327 305 264 179 161 154 149 149 152 154 154 155 160 155 147 149 142 136 138 150 168 188 188
308 320 316 324 335 338 335 329 330 339 338 342 336 331 330 337 340 5 344 340 339 341 348 20 128 151 154 155 157 156 154 156 157 149 148 144 138 137 143 160 185 191 178
347 343 330 346 336 334 338 334 334 337 336 344 345 343 340 345 343 335 4 349 352 352 351 358 27 111 142 155 160 159 155 154 150 145 143 137 137 143 165 175 170 178 174
3 352 349 354 348 342 336 340 338 342 345 343 351 355 356 349 349 1 0 351 356 357 2 13 27 64 87 97 113 132 132 135 138 134 136 140 146 162 169 167 179 183 156
2 358 0 354 350 347 348 356 353 355 353 356 348 344 346 352 353 4 357 344 2 2 32 21 42 74 90 97 108 112 109 122 129 126 138 156 161 168 157 163 173 161 154
8 1 5 357 355 352 355 359 357 356 354 354 354 351 352 349 351 352 353 1 31 34 38 22 66 76 73 95 105 101 100 108 124 93 86 152 162 143 161 163 159 156 156